Location: Czekanka
(50.4925°N, 19.2643°E)
Time: 00:27:09
(UTC+00:00)

Daily predictions for brighter satellites

Satellite Brightness Start Highest point End
(mag) Time Altitude Azimuth Time Altitude Azimuth Time Altitude Azimuth
Cosmos 2082 3.9 00:03:45 20° S 00:07:36 65° ESE 00:13:10 10° NE
Cosmos 292 Rocket 3.7 00:04:41 22° SSW 00:07:46 83° ESE 00:12:37 10° NNE
Cosmos 1544 Rocket 3.9 00:04:38 10° N 00:09:05 67° ENE 00:12:56 13° SSE
Cosmos 1869 3.2 00:05:23 10° N 00:09:06 73° E 00:11:48 18° SSE
Cosmos 2227 Rocket 2.7 00:05:20 15° SW 00:09:54 55° NW 00:15:30 10° NNE
Cosmos 1943 3.6 00:04:26 10° NNW 00:10:04 65° ENE 00:15:38 10° SE
IDEFIX/ARIANE 42P 3.3 00:05:10 10° NNE 00:10:13 45° E 00:14:28 14° SSE
Cosmos 990 Rocket 4.3 00:08:24 18° SW 00:12:06 59° WNW 00:17:11 10° NNE
CZ-2C R/B 4.5 00:09:58 10° NNE 00:14:52 32° E 00:19:29 10° SSE
Cosmos 2228 3.5 00:10:50 10° N 00:15:07 57° ENE 00:19:17 10° SSE
CZ-2C R/B 3.1 00:10:50 10° SSE 00:16:00 60° ENE 00:21:21 10° N
SL-12 R/B(2) 4.5 00:09:26 15° SW 00:16:43 87° NW 00:26:52 10° NE
GEOS 3 Rocket 4.1 00:12:00 10° NE 00:17:05 57° NW 00:22:02 10° WSW
CENTAUR R/B 2.6 00:12:18 16° SW 00:17:10 83° NW 00:24:33 10° NE
CZ-2D R/B 3.2 00:12:42 10° NNE 00:17:43 38° E 00:22:29 11° SSE
Meteor 1-11 4.3 00:15:36 18° S 00:20:02 85° ESE 00:25:53 10° NNE
H-2A R/B 4.1 00:17:41 10° NNW 00:20:39 18° WNW 00:23:33 10° WSW
Cosmos 1975 Rocket 3.3 00:21:39 20° SSW 00:24:30 60° WNW 00:28:52 10° N
COBE Rocket 4.1 00:20:58 10° NNE 00:26:09 84° ESE 00:30:13 17° S
SL-4 R/B 4.2 00:25:53 10° WSW 00:26:25 11° WSW 00:26:25 11° WSW
Cosmos 2297 Rocket 3.9 00:25:52 10° W 00:30:38 27° NW 00:35:25 10° NNE
Cosmos 2219 3.5 00:27:36 16° SW 00:32:08 63° WNW 00:37:44 10° NNE
H-2A R/B 3.8 00:28:58 10° NNE 00:32:54 57° ESE 00:36:04 15° S
Cosmos 2341 Rocket 4.0 00:28:16 17° SSW 00:33:15 76° WNW 00:39:30 10° N
NPP 3.9 00:28:42 10° NNE 00:34:07 69° ESE 00:38:46 14° S
Cosmos 1455 Rocket 4.2 00:31:13 10° NNW 00:35:01 28° W 00:37:36 17° SW
Aureole 1 Rocket 3.6 00:38:34 16° SW 00:41:15 45° WNW 00:45:39 10° NNE
ADEOS II 3.0 00:40:18 10° NNE 00:45:20 44° E 00:50:20 10° S
Cosmos 372 Rocket 4.1 00:42:35 16° SSW 00:46:48 72° WNW 00:52:02 10° NNE
Cosmos 921 Rocket 3.8 00:42:51 10° NNW 00:47:02 52° ENE 00:51:07 10° SE
Cosmos 494 Rocket 4.5 00:41:50 10° NNW 00:47:04 65° ENE 00:52:17 10° SE
Cosmos 1536 Rocket 3.7 00:50:03 13° S 00:54:02 80° E 00:58:29 10° NNE
Resurs 1-4 Rocket 2.2 00:52:47 10° NNE 00:58:05 83° ESE 01:03:09 11° SSW
BREEZE-M DEB (TANK) 3.7 00:57:19 10° W 00:58:59 14° WSW 00:58:59 14° WSW
Cosmos 1606 3.7 00:58:42 10° NNW 01:01:45 27° W 01:04:04 14° SW
NOSS 3-2 (A) 3.6 00:56:57 11° WSW 01:02:10 66° NW 01:08:39 10° NE
Cosmos 1937 Rocket 3.7 00:58:06 14° SW 01:02:41 63° WNW 01:07:54 10° NNE
Cosmos 2263 Rocket 2.7 00:58:49 12° SW 01:03:55 52° NW 01:09:22 10° NNE
Cosmos 1898 Rocket 4.1 01:01:19 12° SW 01:05:55 46° WNW 01:10:54 10° NNE
CZ-4C R/B 4.1 01:01:39 10° WNW 01:06:14 29° NNW 01:11:51 10° NE
Cosmos 1821 Rocket 4.0 01:01:26 10° S 01:07:31 86° W 01:13:43 10° N
NOSS 3-2 (C) 3.3 01:03:08 13° SW 01:07:55 77° SE 01:14:17 10° NE
Orbus 7S? 3.6 01:05:47 10° WNW 01:08:26 36° SW 01:12:34 10° SSE
USA 267 4.2 01:02:39 10° ENE 01:08:35 36° SE 01:14:28 10° SSW
Cosmos 2218 Rocket 4.3 01:04:28 12° SSW 01:10:04 54° WNW 01:16:08 10° N
Meteor 1-27 4.4 01:08:02 10° NNW 01:13:48 62° W 01:19:28 10° S
Cosmos 1607 4.1 01:08:11 10° NW 01:14:40 87° NE 01:21:01 10° SE
BlueWalker 3 2.5 01:12:36 10° WNW 01:16:18 57° N 01:20:01 10° E
Cosmos 1461 3.0 01:14:31 11° SW 01:18:14 64° NW 01:22:06 10° NE
Cosmos 1812 3.8 01:14:53 10° N 01:18:19 42° ENE 01:21:43 10° SSE
AQUA 4.1 01:14:54 10° NNE 01:19:38 68° ESE 01:24:20 10° S
Cosmos 1844 Rocket 3.1 01:18:08 10° S 01:23:36 59° ESE 01:29:05 10° NE
UNK 4.2 01:19:17 10° SSE 01:23:50 66° ENE 01:28:24 10° N
BREEZE-M DEB (TANK) 3.6 01:25:56 11° SW 01:26:36 12° SSW 01:27:56 10° S
MSX 4.1 01:21:53 10° N 01:27:30 57° WNW 01:33:05 10° SW
SL-24 DEB 4.2 01:24:22 10° N 01:28:56 88° W 01:33:30 10° S
BREEZE-M R/B 4.3 01:24:47 10° WNW 01:33:24 68° SSW 01:39:07 10° ESE
ALOS 2.5 01:29:38 10° NNE 01:34:15 69° ESE 01:38:51 10° S
Cosmos 2058 Rocket 3.7 01:33:11 10° N 01:37:37 62° ENE 01:41:58 10° SSE
SL-16 R/B 4.1 01:36:45 10° W 01:37:55 11° W 01:39:05 10° WSW
SL-16 R/B 2.6 01:32:12 10° S 01:38:25 67° WSW 01:44:39 10° NNW
Cosmos 2123 Rocket 4.0 01:33:47 10° N 01:40:00 86° W 01:46:12 10° S
Iridium 2 2.8 01:38:47 10° S 01:41:15 71° E 01:43:45 10° N
Cosmos 1892 Rocket 3.8 01:38:40 10° S 01:43:03 76° E 01:47:30 10° NNE
Cosmos 1603 4.1 01:38:19 10° NW 01:43:45 44° WSW 01:49:08 10° S
USA 234 3.4 01:39:22 10° ESE 01:45:56 84° NNE 01:52:32 10° WNW
Cosmos 1934 Rocket 4.2 01:40:28 10° S 01:46:48 84° E 01:53:14 10° N
Meteor 1-28 Rocket 3.7 01:45:34 10° SSW 01:48:51 37° W 01:52:12 10° NNW
IDEFIX/ARIANE 42P 3.7 01:44:58 10° N 01:49:35 32° WNW 01:54:10 10° WSW
